Location: Bay Shore Mobile Home Park
(38.5762°N, 75.0841°W)
Time: 08:19:56
(UTC+00:00)

ISS - Pass Details

Date: 15 November 2025
Orbit: 416 x 421 km, 51.6° (Epoch: 04 December)

Event Time Altitude Azimuth Distance (km) Brightness Sun altitude
Rises 23:17:52 0° 261° (W) 2,361 1.8 -17.8°
Reaches altitude 10° 23:20:14 10° 276° (W) 1,498 0.2 -18.3°
Maximum altitude 23:23:02 24° 332° (NNW) 918 -1.9 -18.8°
Enters shadow 23:24:01 21° 0° (N) 1,009 -1.9 -19.0°
